WMT13DU LROP-LUKK

Flight info

Callsign WMT13DU
Flight time 0h 38m
Altitude 24000
Route DENAK DCT URELA DCT FOCSA DCT KENUX DCT BCU DCT BUSES
Aircraft A321/M-SDE1E2E3FGIJ1J4RWXY/LB1

Departure

Time 2026-05-04 19:43
Airport Bucharest Henri Coandă International Airport (LROP)

Arrival

Time 2026-05-04 20:21
Airport Chişinău International Airport (LUKK)
Time Latitude Longitude Altitude Speed Heading
2026-05-04 19:17 44.57023 26.08197 318 ft 0 kts 354°
2026-05-04 19:33 44.57022 26.08197 318 ft 1 kts 354°
2026-05-04 19:33 44.57008 26.08199 318 ft 2 kts 354°
2026-05-04 19:34 44.56993 26.08201 318 ft 2 kts 354°
2026-05-04 19:34 44.56979 26.08203 318 ft 2 kts 354°
2026-05-04 19:34 44.56963 26.08203 318 ft 2 kts 20°
2026-05-04 19:34 44.56950 26.08193 318 ft 2 kts 44°
2026-05-04 19:35 44.56942 26.08176 318 ft 2 kts 70°
2026-05-04 19:35 44.56939 26.08155 318 ft 2 kts 89°
2026-05-04 19:35 44.56938 26.08135 319 ft 2 kts 82°
2026-05-04 19:35 44.56937 26.08119 319 ft 0 kts 84°
2026-05-04 19:36 44.56937 26.08118 319 ft 0 kts 84°
2026-05-04 19:38 44.56938 26.08134 318 ft 2 kts 84°
2026-05-04 19:38 44.56940 26.08168 318 ft 4 kts 84°
2026-05-04 19:38 44.56945 26.08234 318 ft 9 kts 84°
2026-05-04 19:38 44.56952 26.08332 318 ft 10 kts 83°
2026-05-04 19:39 44.57006 26.08387 318 ft 11 kts 356°
2026-05-04 19:39 44.57087 26.08375 318 ft 12 kts 353°
2026-05-04 19:39 44.57172 26.08362 318 ft 9 kts 354°
2026-05-04 19:39 44.57226 26.08401 318 ft 10 kts 70°
2026-05-04 19:40 44.57251 26.08491 318 ft 10 kts 27°
2026-05-04 19:40 44.57323 26.08486 318 ft 10 kts 356°
2026-05-04 19:40 44.57399 26.08478 319 ft 11 kts 354°
2026-05-04 19:40 44.57478 26.08467 319 ft 11 kts 354°
2026-05-04 19:41 44.57536 26.08459 319 ft 6 kts 354°
2026-05-04 19:41 44.57587 26.08452 319 ft 7 kts 355°
2026-05-04 19:41 44.57644 26.08446 319 ft 8 kts 358°
2026-05-04 19:41 44.57669 26.08499 319 ft 0 kts 83°
2026-05-04 19:42 44.57673 26.08549 319 ft 25 kts 83°
2026-05-04 19:42 44.57718 26.09164 316 ft 99 kts 83°
2026-05-04 19:42 44.57815 26.10414 311 ft 159 kts 84°
2026-05-04 19:42 44.57940 26.12054 798 ft 169 kts 84°
2026-05-04 19:43 44.58055 26.13651 1484 ft 169 kts 84°
2026-05-04 19:43 44.58162 26.15254 2063 ft 163 kts 83°
2026-05-04 19:43 44.58261 26.16816 2537 ft 162 kts 83°
2026-05-04 19:43 44.58360 26.18391 3001 ft 162 kts 81°
2026-05-04 19:44 44.58460 26.19945 3463 ft 162 kts 81°
2026-05-04 19:44 44.58564 26.21531 3927 ft 163 kts 80°
2026-05-04 19:44 44.58673 26.23111 4342 ft 167 kts 79°
2026-05-04 19:44 44.58811 26.24754 4722 ft 174 kts 78°
2026-05-04 19:45 44.58924 26.26495 5079 ft 186 kts 81°
2026-05-04 19:45 44.59007 26.28323 5478 ft 196 kts 82°
2026-05-04 19:45 44.59376 26.30200 5770 ft 205 kts 52°
2026-05-04 19:45 44.60581 26.31319 6016 ft 225 kts 16°
2026-05-04 19:46 44.62168 26.31845 6443 ft 241 kts 17°
2026-05-04 19:46 44.63780 26.32600 7012 ft 252 kts 22°
2026-05-04 19:46 44.65398 26.33541 7821 ft 253 kts 24°
2026-05-04 19:46 44.66987 26.34569 8640 ft 254 kts 26°
2026-05-04 19:47 44.68565 26.35650 9396 ft 255 kts 27°
2026-05-04 19:47 44.70148 26.36772 10140 ft 257 kts 27°
2026-05-04 19:47 44.71771 26.37943 10733 ft 267 kts 27°
2026-05-04 19:47 44.73463 26.39179 11022 ft 284 kts 28°
2026-05-04 19:48 44.75245 26.40487 11390 ft 298 kts 28°
2026-05-04 19:48 44.77100 26.41850 12002 ft 304 kts 28°
2026-05-04 19:48 44.78994 26.43253 12677 ft 307 kts 28°
2026-05-04 19:48 44.80857 26.44649 13316 ft 309 kts 29°
2026-05-04 19:49 44.82755 26.46078 13956 ft 312 kts 29°
2026-05-04 19:49 44.84693 26.47539 14536 ft 316 kts 29°
2026-05-04 19:49 44.86637 26.49005 15108 ft 320 kts 29°
2026-05-04 19:49 44.88588 26.50473 15694 ft 323 kts 29°
2026-05-04 19:50 44.90590 26.51983 16314 ft 325 kts 29°
2026-05-04 19:50 44.92568 26.53475 16876 ft 328 kts 29°
2026-05-04 19:50 44.94603 26.55012 17419 ft 332 kts 29°
2026-05-04 19:50 44.96642 26.56552 17973 ft 334 kts 29°
2026-05-04 19:51 44.98678 26.58090 18509 ft 337 kts 28°
2026-05-04 19:51 45.00756 26.59663 19009 ft 341 kts 28°
2026-05-04 19:51 45.02850 26.61249 19494 ft 344 kts 28°
2026-05-04 19:51 45.04953 26.62845 19954 ft 348 kts 28°
2026-05-04 19:52 45.07108 26.64479 20410 ft 352 kts 28°
2026-05-04 19:52 45.09271 26.66122 20841 ft 356 kts 28°
2026-05-04 19:52 45.11497 26.67815 21308 ft 359 kts 28°
2026-05-04 19:52 45.13703 26.69493 21750 ft 363 kts 28°
2026-05-04 19:53 45.15936 26.71193 22198 ft 366 kts 27°
2026-05-04 19:53 45.18199 26.72916 22614 ft 370 kts 27°
2026-05-04 19:53 45.20481 26.74656 23020 ft 374 kts 27°
2026-05-04 19:53 45.22762 26.76396 23446 ft 376 kts 27°
2026-05-04 19:54 45.25063 26.78153 23879 ft 379 kts 27°
2026-05-04 19:54 45.27381 26.79926 24035 ft 381 kts 27°
2026-05-04 19:54 45.29726 26.81721 24043 ft 381 kts 27°
2026-05-04 19:54 45.32062 26.83510 24044 ft 381 kts 27°
2026-05-04 19:55 45.34379 26.85287 24045 ft 380 kts 27°
2026-05-04 19:55 45.36708 26.87075 24047 ft 380 kts 27°
2026-05-04 19:55 45.39036 26.88864 24046 ft 380 kts 27°
2026-05-04 19:55 45.41341 26.90636 24051 ft 380 kts 27°
2026-05-04 19:56 45.43674 26.92428 24053 ft 380 kts 27°
2026-05-04 19:56 45.45994 26.94216 24054 ft 380 kts 27°
2026-05-04 19:56 45.48302 26.95997 24053 ft 379 kts 27°
2026-05-04 19:56 45.50645 26.97806 24058 ft 379 kts 27°
2026-05-04 19:57 45.52931 26.99574 24061 ft 379 kts 27°
2026-05-04 19:57 45.55245 27.01363 24059 ft 379 kts 27°
2026-05-04 19:57 45.57554 27.03153 24055 ft 378 kts 27°
2026-05-04 19:57 45.59872 27.04949 24059 ft 379 kts 27°
2026-05-04 19:58 45.62199 27.06754 24054 ft 379 kts 27°
2026-05-04 19:58 45.64502 27.08542 24057 ft 379 kts 28°
2026-05-04 19:58 45.66805 27.10330 24058 ft 379 kts 28°
2026-05-04 19:58 45.69109 27.12124 24058 ft 379 kts 28°
2026-05-04 19:59 45.71430 27.13933 24051 ft 379 kts 28°
2026-05-04 19:59 45.73743 27.15737 24051 ft 379 kts 28°
2026-05-04 19:59 45.76048 27.17536 24054 ft 378 kts 28°
2026-05-04 19:59 45.78345 27.19330 24058 ft 378 kts 28°
2026-05-04 20:00 45.80649 27.21131 24060 ft 377 kts 28°
2026-05-04 20:00 45.82971 27.22947 24061 ft 377 kts 28°
2026-05-04 20:00 45.85258 27.24738 24056 ft 377 kts 28°
2026-05-04 20:00 45.87564 27.26545 24055 ft 377 kts 28°
2026-05-04 20:01 45.89869 27.28352 24054 ft 377 kts 28°
2026-05-04 20:01 45.92157 27.30149 24044 ft 378 kts 28°
2026-05-04 20:01 45.94478 27.31973 24061 ft 378 kts 28°
2026-05-04 20:01 45.96758 27.33766 24057 ft 378 kts 28°
2026-05-04 20:02 45.99066 27.35586 24061 ft 378 kts 28°
2026-05-04 20:02 46.01359 27.37394 24058 ft 377 kts 28°
2026-05-04 20:02 46.03658 27.39210 24055 ft 376 kts 28°
2026-05-04 20:02 46.05973 27.41040 24054 ft 376 kts 28°
2026-05-04 20:03 46.08250 27.42838 24051 ft 377 kts 28°
2026-05-04 20:03 46.10577 27.44681 24054 ft 377 kts 28°
2026-05-04 20:03 46.12876 27.46501 24054 ft 377 kts 28°
2026-05-04 20:03 46.15178 27.48327 24053 ft 377 kts 28°
2026-05-04 20:04 46.17477 27.50152 24050 ft 378 kts 28°
2026-05-04 20:04 46.19780 27.51985 23871 ft 377 kts 28°
2026-05-04 20:04 46.22061 27.53799 23612 ft 375 kts 29°
2026-05-04 20:04 46.24317 27.55594 23350 ft 373 kts 29°
2026-05-04 20:05 46.26618 27.57423 23084 ft 371 kts 29°
2026-05-04 20:05 46.28872 27.59215 22821 ft 369 kts 29°
2026-05-04 20:05 46.31095 27.60984 22563 ft 367 kts 29°
2026-05-04 20:05 46.33329 27.62765 22296 ft 365 kts 29°
2026-05-04 20:06 46.35540 27.64528 22022 ft 363 kts 29°
2026-05-04 20:06 46.37772 27.66311 21737 ft 362 kts 30°
2026-05-04 20:06 46.39962 27.68062 21369 ft 360 kts 30°
2026-05-04 20:06 46.42136 27.69800 20950 ft 358 kts 30°
2026-05-04 20:07 46.44298 27.71531 20511 ft 355 kts 30°
2026-05-04 20:07 46.46464 27.73268 20058 ft 353 kts 30°
2026-05-04 20:07 46.48585 27.74968 19604 ft 350 kts 30°
2026-05-04 20:07 46.50721 27.76683 19147 ft 348 kts 30°
2026-05-04 20:08 46.52812 27.78438 18656 ft 346 kts 35°
2026-05-04 20:08 46.54473 27.80936 17836 ft 353 kts 54°
2026-05-04 20:08 46.55813 27.83927 17186 ft 351 kts 56°
2026-05-04 20:08 46.57116 27.86842 16525 ft 348 kts 56°
2026-05-04 20:09 46.58445 27.89769 15882 ft 345 kts 55°
2026-05-04 20:09 46.59772 27.92654 15247 ft 341 kts 54°
2026-05-04 20:09 46.61070 27.95447 14619 ft 337 kts 54°
2026-05-04 20:09 46.62380 27.98252 13990 ft 333 kts 54°
2026-05-04 20:10 46.63676 28.01018 13362 ft 330 kts 54°
2026-05-04 20:10 46.64946 28.03726 12731 ft 327 kts 54°
2026-05-04 20:10 46.66209 28.06416 12229 ft 320 kts 54°
2026-05-04 20:10 46.67443 28.09048 12059 ft 309 kts 53°
2026-05-04 20:11 46.68662 28.11641 12044 ft 305 kts 53°
2026-05-04 20:11 46.69824 28.14122 12043 ft 290 kts 54°
2026-05-04 20:11 46.70921 28.16463 11865 ft 279 kts 53°
2026-05-04 20:11 46.72009 28.18789 11703 ft 270 kts 53°
2026-05-04 20:12 46.73060 28.21032 11409 ft 267 kts 53°
2026-05-04 20:12 46.74090 28.23235 11051 ft 266 kts 53°
2026-05-04 20:12 46.75129 28.25457 10696 ft 265 kts 53°
2026-05-04 20:12 46.76167 28.27675 10349 ft 264 kts 53°
2026-05-04 20:13 46.77198 28.29887 10002 ft 263 kts 53°
2026-05-04 20:13 46.78215 28.32068 9642 ft 262 kts 53°
2026-05-04 20:13 46.79232 28.34249 9289 ft 261 kts 53°
2026-05-04 20:13 46.80247 28.36427 8956 ft 259 kts 53°
2026-05-04 20:14 46.81265 28.38613 8626 ft 258 kts 53°
2026-05-04 20:14 46.82258 28.40749 8314 ft 254 kts 53°
2026-05-04 20:14 46.83229 28.42844 8105 ft 243 kts 53°
2026-05-04 20:14 46.84161 28.44853 7909 ft 234 kts 53°
2026-05-04 20:15 46.85064 28.46801 7405 ft 238 kts 53°
2026-05-04 20:15 46.85995 28.48805 6887 ft 241 kts 53°
2026-05-04 20:15 46.86928 28.50816 6469 ft 239 kts 53°
2026-05-04 20:15 46.87864 28.52839 6047 ft 238 kts 54°
2026-05-04 20:16 46.88769 28.54797 5752 ft 231 kts 54°
2026-05-04 20:16 46.89663 28.56730 5287 ft 233 kts 54°
2026-05-04 20:16 46.90572 28.58697 4794 ft 236 kts 54°
2026-05-04 20:16 46.91489 28.60700 4373 ft 235 kts 58°
2026-05-04 20:17 46.92041 28.62927 4049 ft 236 kts 77°
2026-05-04 20:17 46.92224 28.65284 3740 ft 231 kts 84°
2026-05-04 20:17 46.92307 28.67591 3435 ft 223 kts 86°
2026-05-04 20:17 46.92350 28.69807 3146 ft 215 kts 87°
2026-05-04 20:18 46.92384 28.71960 2928 ft 207 kts 88°
2026-05-04 20:18 46.92417 28.74005 2708 ft 201 kts 88°
2026-05-04 20:18 46.92453 28.75994 2398 ft 192 kts 89°
2026-05-04 20:18 46.92488 28.77877 2152 ft 178 kts 89°
2026-05-04 20:19 46.92522 28.79647 1883 ft 168 kts 90°
2026-05-04 20:19 46.92557 28.81306 1645 ft 158 kts 90°
2026-05-04 20:19 46.92587 28.82870 1438 ft 150 kts 90°
2026-05-04 20:19 46.92614 28.84389 1258 ft 149 kts 90°
2026-05-04 20:20 46.92642 28.85896 1071 ft 149 kts 90°
2026-05-04 20:20 46.92673 28.87415 879 ft 148 kts 90°
2026-05-04 20:20 46.92698 28.88917 683 ft 148 kts 90°
2026-05-04 20:20 46.92731 28.90423 480 ft 148 kts 90°
2026-05-04 20:21 46.92756 28.91892 366 ft 138 kts 90°
2026-05-04 20:21 46.92779 28.93091 329 ft 92 kts 88°
2026-05-04 20:21 46.92789 28.94020 306 ft 8 kts 69°
2026-05-04 20:22 46.92797 28.94001 306 ft 3 kts 256°
2026-05-04 20:22 46.92796 28.93941 308 ft 10 kts 269°
2026-05-04 20:22 46.92794 28.93818 311 ft 14 kts 269°
2026-05-04 20:22 46.92791 28.93641 316 ft 19 kts 268°
2026-05-04 20:23 46.92789 28.93478 321 ft 10 kts 281°
2026-05-04 20:23 46.92841 28.93419 322 ft 10 kts 350°
2026-05-04 20:23 46.92915 28.93414 321 ft 11 kts 358°
2026-05-04 20:23 46.92994 28.93412 321 ft 10 kts
2026-05-04 20:24 46.93071 28.93425 320 ft 11 kts
2026-05-04 20:24 46.93140 28.93455 320 ft 10 kts 52°
2026-05-04 20:24 46.93141 28.93575 317 ft 10 kts 95°
2026-05-04 20:24 46.93178 28.93624 316 ft 4 kts 356°
2026-05-04 20:25 46.93196 28.93592 317 ft 4 kts 284°
2026-05-04 20:25 46.93200 28.93555 318 ft 2 kts 278°
2026-05-04 20:25 46.93201 28.93544 318 ft 0 kts 277°
2026-05-04 20:25 46.93201 28.93543 318 ft 0 kts 277°